Regional Weather Roundup
Issued by NWS Bismarck, ND

Current Version | Previous Version | Text Only | Print | Product List | Glossary On
Versions: 1 2 3 4 5 6 7 8 9 10 11 12 13 14 15 16 17 18 19 20 21 22 23 24 25 26 27 28 29 30 31 32 33 34 35 36 37 38 39 40 41 42 43 44 45 46 47 48 49 50
000
ASUS43 KBIS 251402
RWRBIS

NWR BROADCAST TEXT
NATIONAL WEATHER SERVICE BISMARCK ND
900 AM CDT SUN SEP 25 2016

NOTE: "FAIR" INDICATES FEW OR NO CLOUDS BELOW 12,000 FEET WITH NO
SIGNIFICANT WEATHER AND/OR OBSTRUCTIONS TO VISIBILITY.


CITY           SKY/WX    TMP DP  RH WIND       PRES   REMARKS
WILLISTON      SUNNY     48  38  68 NW21G28   30.15R
MINOT          PTSUNNY   50  44  80 W30G39    29.96R
MINOT AFB      PTSUNNY   48  44  85 NW24G38   29.94R
BISMARCK       CLOUDY    51  46  83 NW21G30   29.99R
DICKINSON      SUNNY     45  39  79 W21G29    30.13R
GARRISON         N/A     48  44  86 NW28G36   29.99R
HETTINGER ARPT SUNNY     47  38  71 W22G28    30.18R
JAMESTOWN      CLOUDY    53  50  89 NW23G32   29.82R
CARRINGTON     CLOUDY    52  50  93 NW24G33   29.85R
HAZEN          FAIR      50  45  81 NW20G29   30.05R
RUGBY          LGT RAIN  50  50 100 NW24G33   29.85R
STANLEY        FAIR      45  45 100 NW18G31   30.06S
$$

CITY           SKY/WX    TMP DP  RH WIND       PRES   REMARKS
GRAND FORKS    LGT RAIN  53  49  86 SW15      29.68S
GRAND FORKS AF DRIZZLE   52  50  93 SW9       29.68R
DEVILS LAKE    LGT RAIN  51  50  96 NW26G35   29.76R FOG
FARGO          PTSUNNY   56  50  80 SW17      29.76S
CANDO          FAIR      50  50 100 NW24G32   29.80R FOG
CAVALIER       CLOUDY    55  55 100 N17G24    29.66S FOG
GRAFTON        CLOUDY    54  54 100 S10       29.68R FOG
GWINNER        CLOUDY    55  54  94 W20       29.81R
LANGDON        RAIN      52  52 100 NW26G35   29.71R
ROLLA          CLOUDY    50  50 100 NW31G40   29.80R
WALHALLA       LGT RAIN  54  52  94 NW13G24   29.70R
$$

CITY           SKY/WX    TMP DP  RH WIND       PRES   REMARKS
ABERDEEN       CLOUDY    57  49  74 W16G31    29.92R
MOBRIDGE       CLOUDY    56  44  64 NW24G38   30.01R
BUFFALO          N/A     47  38  71 W24       30.19R
RAPID CITY     SUNNY     52  31  44 NW26G35   30.29R
GLASGOW        CLEAR     39  34  82 W7        30.28S
SIDNEY         SUNNY     46  38  73 NW18G25   30.19R
WOLF POINT     SUNNY     42  36  79 W10       30.26R
GLENDIVE       SUNNY     46  38  73 W10       30.26R
MILES CITY     SUNNY     45  39  79 NW9       30.32R
BAKER          SUNNY     42  36  79 W15       30.26R
$$

CITY           SKY/WX    TMP DP  RH WIND       PRES   REMARKS
BILLINGS       CLOUDY    48  38  68 SW9       30.38S
GREAT FALLS    CLEAR     43  34  70 S10       30.36S
$$




USA.gov is the U.S. government's official web portal to all federal, state and local government web resources and services.